Location: Newark
(41.7622°N, 48.6978°E)
Time: 10:08:25
(UTC+00:00)

N. Korean satellite - Visible Passes

Search period start: 28 January 2020 00:00
Search period end: 07 February 2020 00:00
Orbit: 454 x 507 km, 97.2° (Epoch: 27 January)

Date Brightness Start Highest point End Pass type
(mag) Time Alt. Az. Time Alt. Az. Time Alt. Az.
28 Jan 6.7 02:53:54 10° N 02:57:25 52° WNW 03:00:58 10° SSW visible
29 Jan 6.9 02:28:20 10° NNE 02:31:57 70° ESE 02:35:35 10° S visible
29 Jan 9.7 14:38:23 10° SW 14:40:45 18° W 14:43:08 10° NW visible
30 Jan 8.5 02:03:07 10° NNE 02:06:24 31° E 02:09:41 10° SSE visible
31 Jan 9.7 01:38:28 10° NE 01:40:45 16° E 01:43:03 10° SE visible
31 Jan 7.3 03:10:57 10° N 03:14:12 32° WNW 03:17:29 10° SW visible
01 Feb 6.5 02:45:10 10° N 02:48:48 69° WNW 02:52:26 10° SSW visible
01 Feb 10.3 14:56:50 10° WSW 14:57:43 11° W 14:58:37 10° WNW visible
02 Feb 7.4 02:19:43 10° NNE 02:23:18 53° E 02:26:54 10° S visible
02 Feb 9.5 14:29:17 10° SSW 14:32:01 22° W 14:34:48 10° NW visible
03 Feb 9.0 01:54:38 10° NE 01:57:42 25° E 02:00:49 10° SSE visible
04 Feb 10.0 01:30:20 10° ENE 01:32:02 13° E 01:33:44 10° ESE visible
04 Feb 7.0 03:02:08 10° N 03:05:36 40° WNW 03:09:04 10° SW visible
05 Feb 6.6 02:36:28 10° NNE 02:40:09 89° WNW 02:43:51 10° SSW visible
05 Feb 9.9 14:47:05 10° SW 14:48:57 14° W 14:50:52 10° WNW visible
06 Feb 8.0 02:11:07 10° NNE 02:14:37 41° E 02:18:08 10° S visible
